Hourly Weather Holovkivka

Today, 11 April, Sunday

Time Temperature Precipitation Wind Pressure Humidity
00:00 +6°C° 0 mm 2 mps 760 mmHg 45%
01:00 +5°C° 0 mm 2 mps 760 mmHg 46%
02:00 +5°C° 0 mm 2 mps 760 mmHg 47%
03:00 +5°C° 0 mm 2 mps 760 mmHg 51%
04:00 +3°C° 0 mm 3 mps 761 mmHg 54%
05:00 +3°C° 0 mm 3 mps 761 mmHg 57%
06:00 +5°C° 0 mm 3 mps 761 mmHg 54%
07:00 +7°C° 0 mm 3 mps 761 mmHg 51%
08:00 +8°C° 0 mm 4 mps 762 mmHg 48%
09:00 +10°C° 0 mm 4 mps 761 mmHg 44%
10:00 +12°C° 0 mm 5 mps 761 mmHg 40%
11:00 +13°C° 0 mm 5 mps 761 mmHg 36%
12:00 +13°C° 0 mm 5 mps 761 mmHg 35%
13:00 +14°C° 0 mm 5 mps 760 mmHg 34%
14:00 +15°C° 0 mm 5 mps 760 mmHg 33%
15:00 +14°C° 0 mm 5 mps 760 mmHg 35%
16:00 +14°C° 0 mm 5 mps 759 mmHg 37%
17:00 +14°C° 0 mm 5 mps 759 mmHg 38%
18:00 +13°C° 0 mm 4 mps 759 mmHg 43%
19:00 +11°C° 0 mm 4 mps 759 mmHg 47%
20:00 +10°C° 0 mm 3 mps 759 mmHg 51%
21:00 +9°C° 0 mm 3 mps 759 mmHg 53%
22:00 +9°C° 0 mm 3 mps 759 mmHg 56%
23:00 +8°C° 0 mm 3 mps 759 mmHg 58%

Tomorrow, 12 April, Monday

Time Temperature Precipitation Wind Pressure Humidity
00:00 +8°C° 0 mm 3 mps 759 mmHg 60%
01:00 +7°C° 0 mm 3 mps 759 mmHg 61%
02:00 +6°C° 0 mm 4 mps 758 mmHg 63%
03:00 +6°C° 0 mm 4 mps 758 mmHg 64%
04:00 +6°C° 0 mm 4 mps 758 mmHg 65%
05:00 +6°C° 0 mm 4 mps 757 mmHg 66%
06:00 +6°C° 0 mm 4 mps 757 mmHg 67%
07:00 +7°C° 0 mm 4 mps 757 mmHg 68%
08:00 +7°C° 0 mm 4 mps 757 mmHg 69%
09:00 +10°C° 0 mm 4 mps 757 mmHg 67%
10:00 +11°C° 0 mm 4 mps 757 mmHg 65%
11:00 +13°C° 0 mm 3 mps 757 mmHg 64%
12:00 +14°C° 0 mm 4 mps 756 mmHg 62%
13:00 +15°C° 0 mm 4 mps 756 mmHg 61%
14:00 +17°C° 0 mm 4 mps 756 mmHg 59%
15:00 +15°C° 0 mm 4 mps 755 mmHg 63%
16:00 +15°C° 0 mm 4 mps 755 mmHg 67%
17:00 +14°C° 0 mm 4 mps 755 mmHg 70%
18:00 +14°C° 0.1 mm 4 mps 755 mmHg 73%
19:00 +13°C° 0.1 mm 3 mps 755 mmHg 76%
20:00 +13°C° 0.1 mm 3 mps 755 mmHg 80%
21:00 +12°C° 0 mm 3 mps 754 mmHg 81%
22:00 +12°C° 0 mm 3 mps 754 mmHg 82%
23:00 +12°C° 0 mm 3 mps 754 mmHg 83%

Day after tomorrow, 13 April, Tuesday

Time Temperature Precipitation Wind Pressure Humidity
00:00 +12°C° 0 mm 3 mps 754 mmHg 85%
01:00 +11°C° 0 mm 3 mps 754 mmHg 88%
02:00 +11°C° 0 mm 4 mps 754 mmHg 90%
03:00 +11°C° 0 mm 4 mps 754 mmHg 90%
04:00 +10°C° 0 mm 4 mps 755 mmHg 90%
05:00 +10°C° 0 mm 4 mps 755 mmHg 90%
06:00 +10°C° 0 mm 4 mps 755 mmHg 87%
07:00 +10°C° 0 mm 4 mps 755 mmHg 85%
08:00 +10°C° 0 mm 4 mps 755 mmHg 82%
09:00 +11°C° 0 mm 4 mps 755 mmHg 76%
10:00 +13°C° 0 mm 4 mps 755 mmHg 71%
11:00 +14°C° 0 mm 4 mps 755 mmHg 65%
12:00 +14°C° 0 mm 4 mps 755 mmHg 65%
13:00 +14°C° 0 mm 4 mps 755 mmHg 66%
14:00 +13°C° 0 mm 4 mps 755 mmHg 66%
15:00 +13°C° 0 mm 4 mps 755 mmHg 68%
16:00 +13°C° 0 mm 3 mps 755 mmHg 69%
17:00 +13°C° 0 mm 3 mps 755 mmHg 71%
18:00 +13°C° 0 mm 2 mps 755 mmHg 74%
19:00 +13°C° 0 mm 2 mps 755 mmHg 76%
20:00 +12°C° 0 mm 2 mps 755 mmHg 79%
21:00 +12°C° 0 mm 2 mps 755 mmHg 80%
22:00 +12°C° 0 mm 2 mps 755 mmHg 82%
23:00 +12°C° 0 mm 2 mps 754 mmHg 83%

14 April, Wednesday

Time Temperature Precipitation Wind Pressure Humidity
00:00 +10°C° 0 mm 2 mps 754 mmHg 85%
01:00 +10°C° 0 mm 2 mps 754 mmHg 87%
02:00 +9°C° 0 mm 2 mps 754 mmHg 89%
03:00 +9°C° 0 mm 2 mps 754 mmHg 90%
04:00 +9°C° 0 mm 2 mps 754 mmHg 91%
05:00 +8°C° 0 mm 2 mps 754 mmHg 93%
06:00 +9°C° 0 mm 2 mps 754 mmHg 89%
07:00 +10°C° 0 mm 2 mps 754 mmHg 85%
08:00 +10°C° 0 mm 2 mps 754 mmHg 81%
09:00 +11°C° 0.2 mm 3 mps 753 mmHg 75%
10:00 +12°C° 0.2 mm 3 mps 753 mmHg 68%
11:00 +13°C° 0.2 mm 3 mps 753 mmHg 62%
12:00 +14°C° 0.4 mm 3 mps 753 mmHg 60%
13:00 +14°C° 0.4 mm 3 mps 752 mmHg 59%
14:00 +14°C° 0.4 mm 3 mps 752 mmHg 57%
15:00 +14°C° 0.1 mm 3 mps 752 mmHg 56%
16:00 +14°C° 0.1 mm 3 mps 752 mmHg 56%
17:00 +15°C° 0.1 mm 2 mps 752 mmHg 55%
18:00 +14°C° 0 mm 2 mps 752 mmHg 59%
19:00 +13°C° 0 mm 1 mps 752 mmHg 63%
20:00 +12°C° 0 mm 1 mps 752 mmHg 66%
21:00 +12°C° 0 mm 1 mps 752 mmHg 68%
22:00 +12°C° 0 mm 2 mps 752 mmHg 70%
23:00 +10°C° 0 mm 2 mps 752 mmHg 72%

15 April, Thursday

Time Temperature Precipitation Wind Pressure Humidity
00:00 +10°C° 0 mm 2 mps 752 mmHg 76%
01:00 +9°C° 0 mm 2 mps 751 mmHg 80%
02:00 +9°C° 0 mm 2 mps 751 mmHg 84%
03:00 +8°C° 0 mm 2 mps 751 mmHg 86%
04:00 +8°C° 0 mm 2 mps 751 mmHg 89%
05:00 +7°C° 0 mm 2 mps 751 mmHg 91%
06:00 +9°C° 0 mm 3 mps 751 mmHg 85%
07:00 +10°C° 0 mm 3 mps 751 mmHg 78%
08:00 +12°C° 0 mm 3 mps 751 mmHg 72%
09:00 +13°C° 0 mm 3 mps 751 mmHg 65%
10:00 +14°C° 0 mm 3 mps 751 mmHg 58%
11:00 +15°C° 0 mm 4 mps 750 mmHg 51%
12:00 +17°C° 0 mm 4 mps 750 mmHg 50%
13:00 +17°C° 0 mm 4 mps 750 mmHg 48%
14:00 +18°C° 0 mm 4 mps 749 mmHg 46%
15:00 +17°C° 0 mm 3 mps 749 mmHg 49%
16:00 +17°C° 0 mm 3 mps 749 mmHg 52%
17:00 +16°C° 0 mm 3 mps 749 mmHg 55%
18:00 +14°C° 0.1 mm 3 mps 749 mmHg 63%
19:00 +13°C° 0.1 mm 3 mps 749 mmHg 71%
20:00 +11°C° 0.1 mm 4 mps 749 mmHg 78%
21:00 +11°C° 0.4 mm 3 mps 749 mmHg 82%
22:00 +10°C° 0.4 mm 3 mps 748 mmHg 85%
23:00 +10°C° 0.4 mm 2 mps 748 mmHg 89%

16 April, Friday

Time Temperature Precipitation Wind Pressure Humidity
00:00 +10°C° 0.9 mm 2 mps 748 mmHg 89%
01:00 +9°C° 0.9 mm 2 mps 748 mmHg 89%
02:00 +9°C° 0.9 mm 2 mps 747 mmHg 90%
03:00 +9°C° 0.3 mm 2 mps 747 mmHg 90%
04:00 +9°C° 0.3 mm 2 mps 747 mmHg 89%
05:00 +9°C° 0.3 mm 2 mps 747 mmHg 89%
06:00 +9°C° 0.2 mm 3 mps 747 mmHg 89%
07:00 +8°C° 0.2 mm 4 mps 747 mmHg 88%
08:00 +8°C° 0.2 mm 4 mps 747 mmHg 88%
09:00 +8°C° 0.2 mm 5 mps 748 mmHg 86%
10:00 +8°C° 0.2 mm 5 mps 748 mmHg 85%
11:00 +8°C° 0.2 mm 5 mps 748 mmHg 83%
12:00 +8°C° 0.2 mm 5 mps 748 mmHg 84%
13:00 +8°C° 0.2 mm 6 mps 748 mmHg 86%
14:00 +8°C° 0.2 mm 6 mps 748 mmHg 87%
15:00 +7°C° 0.1 mm 5 mps 748 mmHg 87%
16:00 +7°C° 0.1 mm 5 mps 749 mmHg 86%
17:00 +7°C° 0.1 mm 4 mps 749 mmHg 85%
18:00 +8°C° 0 mm 3 mps 750 mmHg 86%
19:00 +8°C° 0 mm 3 mps 750 mmHg 86%
20:00 +7°C° 0 mm 3 mps 751 mmHg 87%
21:00 +7°C° 0 mm 3 mps 751 mmHg 88%
22:00 +7°C° 0 mm 2 mps 752 mmHg 89%
23:00 +6°C° 0 mm 2 mps 752 mmHg 90%
Show more